GW4057 Weather Reports


Display with metric or nautical units.
time (UTC)temp
F
wind
direction
speed
MPH
gust
MPH
rain 1hr
in
rain 24hr
in
rain mn
in
humidity
%
barometer
mb
20260508044703 47 241 3.0 5.0 0.00 0.00 0.00 71 1013.2
20260508044203 46 229 3.0 5.0 0.00 0.00 0.00 70 1013.2
20260508043704 46 234 2.0 3.0 0.00 0.00 0.00 70 1013.2
20260508042204 47 272 2.0 5.0 0.00 0.00 0.00 68 1013.2
20260508041704 47 237 3.0 6.0 0.00 0.00 0.00 67 1013.2
20260508040703 47 215 2.0 8.0 0.00 0.00 0.00 66 1013.2
20260508040204 46 235 4.0 8.0 0.00 0.00 0.00 67 1013.2
20260508035704 45 233 7.0 8.0 0.00 0.00 0.00 68 1013.2
20260508035204 44 245 5.0 6.0 0.00 0.00 0.00 71 1013.2
20260508034704 42 163 2.0 6.0 0.00 0.00 0.00 76 1013.2
20260508034204 42 232 4.0 6.0 0.00 0.00 0.00 78 1013.2
20260508033704 41 125 0.0 0.0 0.00 0.00 0.00 79 1013.2
20260508033204 41 125 0.0 0.0 0.00 0.00 0.00 79 1013.2
20260508032704 41 125 0.0 0.0 0.00 0.00 0.00 78 1013.2
20260508032204 41 109 0.0 0.0 0.00 0.00 0.00 78 1013.2
20260508031704 41 126 0.0 0.0 0.00 0.00 0.00 77 1013.2
20260508030704 42 142 0.0 0.0 0.00 0.00 0.00 76 1013.2
20260508025704 42 115 0.0 0.0 0.00 0.00 0.00 75 1013.2
20260508025204 42 123 0.0 0.0 0.00 0.00 0.00 74 1013.2
20260508024704 42 126 0.0 0.0 0.00 0.00 0.00 73 1013.2
20260508024204 42 125 0.0 0.0 0.00 0.00 0.00 73 1013.2
20260508023704 42 115 0.0 0.0 0.00 0.00 0.00 72 1013.2
20260508023204 43 114 0.0 0.0 0.00 0.00 0.00 72 1013.2
20260508022704 43 115 0.0 0.0 0.00 0.00 0.00 72 1013.2
20260508022204 43 115 0.0 0.0 0.00 0.00 0.00 72 1013.2
20260508021204 44 124 0.0 0.0 0.00 0.00 0.00 69 1013.2
20260508020704 44 116 0.0 0.0 0.00 0.00 0.00 69 1013.2
20260508020206 44 116 0.0 0.0 0.00 0.00 0.00 68 1013.2
20260508015704 45 115 0.0 0.0 0.00 0.00 0.00 67 1013.2
20260508015204 45 130 0.0 0.0 0.00 0.00 0.00 66 1013.2
20260508014704 45 126 0.0 0.0 0.00 0.00 0.00 65 1013.2
20260508014204 46 127 0.0 0.0 0.00 0.00 0.00 66 1013.2
20260508013704 46 126 0.0 0.0 0.00 0.00 0.00 64 1012.9
20260508013204 47 150 0.0 0.0 0.00 0.00 0.00 63 1013.2
20260508012704 47 147 0.0 0.0 0.00 0.00 0.00 63 1012.9
20260508012203 48 144 0.0 0.0 0.00 0.00 0.00 61 1012.9
20260508011704 48 146 0.0 0.0 0.00 0.00 0.00 59 1012.9
20260508011204 49 142 0.0 0.0 0.00 0.00 0.00 57 1012.9
20260508010704 49 141 0.0 2.0 0.00 0.00 0.00 57 1012.9
20260508010203 50 155 0.0 2.0 0.00 0.00 0.00 55 1012.9
20260508005704 50 180 1.0 3.0 0.00 0.00 0.00 53 1012.9
20260508005204 50 190 0.0 3.0 0.00 0.00 0.00 52 1012.9
20260508004707 51 326 1.0 3.0 0.00 0.00 0.00 52 1012.9
20260508004203 51 238 2.0 3.0 0.00 0.00 0.00 51 1012.9
20260508003704 51 335 2.0 6.0 0.00 0.00 0.00 51 1012.9
20260508003204 51 199 3.0 6.0 0.00 0.00 0.00 50 1012.9
20260508002203 52 297 3.0 10.0 0.00 0.00 0.00 49 1012.6
20260508001704 52 273 2.0 10.0 0.00 0.00 0.00 49 1012.5
20260508001204 52 235 4.0 10.0 0.00 0.00 0.00 48 1012.5
20260508000704 53 285 6.0 9.0 0.00 0.00 0.00 48 1012.5
20260508000205 53 264 3.0 8.0 0.00 0.00 0.00 48 1012.5
20260507235704 53 340 5.0 9.0 0.00 0.00 0.00 47 1012.5
20260507234704 53 310 7.0 9.0 0.00 0.00 0.00 46 1012.5
20260507234203 53 333 4.0 9.0 0.00 0.00 0.00 47 1012.5
20260507233704 53 275 4.0 12.0 0.00 0.00 0.00 49 1012.5
20260507232704 53 308 9.0 15.0 0.00 0.00 0.00 46 1012.5
20260507232204 53 312 6.0 15.0 0.00 0.00 0.00 46 1012.2
20260507231704 54 260 9.0 15.0 0.00 0.00 0.00 45 1012.5
20260507231204 54 272 7.0 12.0 0.00 0.00 0.00 45 1012.5
20260507230204 54 290 6.0 13.0 0.00 0.00 0.00 45 1012.5
20260507225704 54 266 7.0 14.0 0.00 0.00 0.00 46 1012.5
20260507225204 54 299 9.0 14.0 0.00 0.00 0.00 45 1012.5
20260507224705 55 353 8.0 15.0 0.00 0.00 0.00 44 1012.5
20260507224204 55 329 6.0 15.0 0.00 0.00 0.00 44 1012.5
20260507223704 55 316 10.0 16.0 0.00 0.00 0.00 44 1012.5
20260507223204 55 286 11.0 16.0 0.00 0.00 0.00 44 1012.5
20260507222704 55 248 10.0 16.0 0.00 0.00 0.00 44 1012.5
20260507222204 55 281 7.0 15.0 0.00 0.00 0.00 45 1012.5
20260507221704 56 246 7.0 12.0 0.00 0.00 0.00 45 1012.5
20260507221204 55 263 9.0 17.0 0.00 0.00 0.00 45 1012.5
20260507220704 55 286 9.0 17.0 0.00 0.00 0.00 44 1012.5
20260507220204 55 297 8.0 17.0 0.00 0.00 0.00 44 1012.2
20260507215203 56 263 10.0 20.0 0.00 0.00 0.00 49 1012.2
20260507214204 56 331 6.0 14.0 0.00 0.00 0.00 53 1012.2
20260507213704 55 299 6.0 12.0 0.00 0.00 0.00 55 1012.2
20260507212704 54 292 6.0 8.0 0.00 0.00 0.00 55 1012.2
20260507212203 55 275 7.0 8.0 0.00 0.00 0.00 56 1012.2
20260507211704 54 320 4.0 12.0 0.00 0.00 0.00 57 1012.2
20260507210704 53 295 9.0 12.0 0.00 0.00 0.00 58 1011.9
20260507210203 54 335 7.0 12.0 0.00 0.00 0.00 57 1011.9
20260507205704 54 322 6.0 12.0 0.00 0.00 0.00 60 1011.9
20260507205204 53 319 5.0 10.0 0.00 0.00 0.00 60 1011.9
20260507204704 53 359 3.0 12.0 0.00 0.00 0.00 61 1012.2
20260507204204 52 340 4.0 12.0 0.00 0.00 0.00 61 1011.9
20260507203704 52 316 5.0 12.0 0.00 0.00 0.00 60 1011.9
20260507203204 52 350 3.0 14.0 0.00 0.00 0.00 59 1011.9
20260507202204 53 302 6.0 14.0 0.00 0.00 0.00 59 1011.9
20260507201704 53 296 5.0 9.0 0.00 0.00 0.00 58 1011.9
20260507201204 53 319 4.0 13.0 0.00 0.00 0.00 59 1011.9
20260507200704 53 299 6.0 13.0 0.00 0.00 0.00 58 1011.9
20260507200204 54 303 7.0 13.0 0.00 0.00 0.00 57 1011.9
20260507195704 54 319 5.0 9.0 0.00 0.00 0.00 57 1011.9
20260507195204 54 327 6.0 12.0 0.00 0.00 0.00 56 1011.9
20260507194204 54 353 7.0 12.0 0.00 0.00 0.00 55 1012.2
20260507193704 55 310 3.0 12.0 0.00 0.00 0.00 54 1011.9
20260507193204 56 316 5.0 10.0 0.00 0.00 0.00 54 1012.2
20260507192704 56 295 7.0 10.0 0.00 0.00 0.00 52 1012.2
20260507190704 56 300 5.0 9.0 0.00 0.00 0.00 53 1012.2
20260507190204 55 357 7.0 9.0 0.00 0.00 0.00 53 1012.2
20260507185704 57 341 7.0 10.0 0.00 0.00 0.00 52 1012.2
20260507185205 55 341 3.0 12.0 0.00 0.00 0.00 51 1012.2
20260507183704 57 319 13.0 17.0 0.00 0.00 0.00 50 1012.2
20260507183204 57 296 6.0 12.0 0.00 0.00 0.00 49 1012.2
20260507182704 55 301 5.0 10.0 0.00 0.00 0.00 52 1012.2
20260507182203 55 351 6.0 12.0 0.00 0.00 0.00 50 1012.2
20260507181704 55 291 3.0 14.0 0.00 0.00 0.00 49 1012.2
20260507181204 56 351 8.0 14.0 0.00 0.00 0.00 50 1012.2
20260507180704 56 291 10.0 14.0 0.00 0.00 0.00 49 1012.2
20260507175704 58 355 6.0 14.0 0.00 0.00 0.00 52 1012.2
20260507175204 56 31 6.0 12.0 0.00 0.00 0.00 51 1012.2
20260507174704 56 36 6.0 12.0 0.00 0.00 0.00 53 1012.5
20260507174204 56 312 6.0 12.0 0.00 0.00 0.00 53 1012.2
20260507173705 57 292 7.0 12.0 0.00 0.00 0.00 54 1012.2
20260507173204 56 355 7.0 12.0 0.00 0.00 0.00 54 1012.2
20260507171704 54 327 4.0 12.0 0.00 0.00 0.00 57 1012.5
20260507171204 55 296 6.0 12.0 0.00 0.00 0.00 57 1012.5
20260507170704 55 274 10.0 12.0 0.00 0.00 0.00 56 1012.5
20260507170204 56 322 3.0 8.0 0.00 0.00 0.00 59 1012.5
20260507165704 54 327 6.0 15.0 0.00 0.00 0.00 59 1012.5
20260507165204 55 311 6.0 15.0 0.00 0.00 0.00 58 1012.5
20260507164704 55 267 9.0 15.0 0.00 0.00 0.00 57 1012.2
20260507164204 56 293 6.0 10.0 0.00 0.00 0.00 56 1012.5
20260507163704 54 293 5.0 10.0 0.00 0.00 0.00 59 1012.5
20260507163204 55 308 10.0 10.0 0.00 0.00 0.00 57 1012.2
20260507162704 55 317 4.0 10.0 0.00 0.00 0.00 59 1012.2
20260507162204 56 281 8.0 12.0 0.00 0.00 0.00 56 1012.2
20260507161704 55 298 4.0 12.0 0.00 0.00 0.00 59 1012.2
20260507160704 56 331 5.0 9.0 0.00 0.00 0.00 56 1012.5
20260507160204 57 314 6.0 9.0 0.00 0.00 0.00 53 1012.2
20260507155704 55 318 7.0 9.0 0.00 0.00 0.00 52 1012.2
20260507155204 55 295 5.0 10.0 0.00 0.00 0.00 53 1012.2
20260507153703 56 323 6.0 12.0 0.00 0.00 0.00 51 1012.5
20260507153204 56 322 6.0 12.0 0.00 0.00 0.00 53 1012.5
20260507152204 54 17 3.0 9.0 0.00 0.00 0.00 54 1012.5
20260507151704 54 357 6.0 7.0 0.00 0.00 0.00 56 1012.5
20260507151204 54 288 2.0 8.0 0.00 0.00 0.00 54 1012.5
20260507150704 53 310 4.0 8.0 0.00 0.00 0.00 53 1012.5
20260507145704 53 0 3.0 7.0 0.00 0.00 0.00 58 1012.5
20260507145204 55 3 3.0 8.0 0.00 0.00 0.00 59 1012.5
20260507144204 54 134 2.0 8.0 0.00 0.00 0.00 56 1012.5
20260507143704 53 247 4.0 8.0 0.00 0.00 0.00 54 1012.5
20260507143204 53 226 5.0 8.0 0.00 0.00 0.00 53 1012.5
20260507142204 53 126 2.0 7.0 0.00 0.00 0.00 60 1012.9
20260507141704 53 18 1.0 7.0 0.00 0.00 0.00 61 1012.9
20260507141204 53 305 4.0 7.0 0.00 0.00 0.00 60 1012.9
20260507140704 53 323 2.0 7.0 0.00 0.00 0.00 66 1012.9
20260507140204 53 342 3.0 7.0 0.00 0.00 0.00 65 1012.9
20260507135704 52 241 4.0 7.0 0.00 0.00 0.00 68 1013.2
20260507134704 52 260 2.0 7.0 0.00 0.00 0.00 68 1013.2
20260507134203 51 208 6.0 7.0 0.00 0.00 0.00 69 1013.2
20260507133704 51 305 3.0 7.0 0.00 0.00 0.00 68 1013.2
20260507133204 51 266 3.0 6.0 0.00 0.00 0.00 69 1013.2
20260507132204 50 284 3.0 6.0 0.00 0.00 0.00 70 1013.2
20260507130703 49 221 3.0 6.0 0.00 0.00 0.00 72 1013.2
20260507130204 49 321 3.0 3.0 0.00 0.00 0.00 75 1013.2
20260507125704 49 187 2.0 5.0 0.00 0.00 0.00 76 1013.2
20260507124704 48 322 2.0 7.0 0.00 0.00 0.00 76 1013.5
20260507124204 48 300 2.0 7.0 0.00 0.00 0.00 76 1013.5
20260507123704 48 195 3.0 6.0 0.00 0.00 0.00 76 1013.2
20260507123204 48 320 5.0 6.0 0.00 0.00 0.00 78 1013.2
20260507122705 48 292 3.0 6.0 0.00 0.00 0.00 78 1013.2
20260507122204 47 310 3.0 6.0 0.00 0.00 0.00 78 1013.2
20260507121704 47 254 4.0 6.0 0.00 0.01 0.00 78 1013.2
20260507121204 46 274 2.0 5.0 0.00 0.01 0.00 80 1012.9
20260507120204 45 217 1.0 5.0 0.00 0.01 0.00 87 1012.9
20260507115705 44 221 0.0 5.0 0.00 0.01 0.00 89 1013.2
20260507115204 43 197 1.0 5.0 0.00 0.01 0.00 91 1013.2
20260507114704 43 132 0.0 2.0 0.00 0.01 0.00 93 1012.9
20260507114204 42 120 0.0 2.0 0.00 0.01 0.00 93 1013.2
20260507113704 42 108 0.0 2.0 0.00 0.01 0.00 93 1013.2
20260507113204 42 105 1.0 1.0 0.00 0.01 0.00 93 1013.2
20260507112704 42 142 0.0 0.0 0.00 0.01 0.00 92 1012.9
20260507112204 42 120 0.0 0.0 0.00 0.01 0.00 91 1012.9
20260507111704 41 102 0.0 0.0 0.00 0.01 0.00 91 1012.9
20260507111204 42 110 0.0 0.0 0.00 0.01 0.00 91 1012.9
20260507110704 42 108 0.0 0.0 0.00 0.01 0.00 91 1012.9
20260507110204 42 112 0.0 0.0 0.00 0.01 0.00 90 1012.9
20260507105704 42 104 0.0 0.0 0.00 0.01 0.00 90 1012.9
20260507105203 42 110 0.0 0.0 0.00 0.01 0.00 89 1012.9
20260507104704 42 109 0.0 0.0 0.00 0.01 0.00 89 1012.5
20260507104204 42 112 0.0 0.0 0.00 0.01 0.00 89 1012.5
20260507103704 42 112 0.0 0.0 0.00 0.01 0.00 88 1012.9
20260507103204 42 112 0.0 0.0 0.00 0.01 0.00 88 1012.5
20260507102704 42 124 0.0 1.0 0.00 0.01 0.00 88 1012.5
20260507102204 42 164 0.0 2.0 0.00 0.01 0.00 88 1012.5
20260507101704 42 113 0.0 2.0 0.00 0.01 0.00 88 1012.9
20260507101205 42 167 1.0 2.0 0.00 0.01 0.00 88 1012.9
20260507100704 42 169 0.0 0.0 0.00 0.01 0.00 87 1012.9
20260507095705 42 134 0.0 2.0 0.00 0.01 0.00 87 1012.5
20260507095204 43 216 0.0 3.0 0.00 0.02 0.00 87 1012.5
20260507094705 43 168 0.0 3.0 0.00 0.02 0.00 86 1012.5
20260507093705 43 146 0.0 5.0 0.00 0.03 0.00 86 1012.5
20260507092704 42 185 2.0 3.0 0.00 0.04 0.00 87 1012.5
20260507091704 42 199 0.0 5.0 0.00 0.05 0.00 89 1012.9
20260507091204 42 187 3.0 5.0 0.00 0.05 0.00 90 1012.5
20260507090704 42 191 2.0 5.0 0.00 0.05 0.00 92 1012.9
20260507090205 42 189 1.0 5.0 0.00 0.05 0.00 93 1012.9
20260507085704 41 114 0.0 0.0 0.00 0.06 0.00 96 1012.9
20260507085205 41 123 0.0 0.0 0.00 0.06 0.00 97 1012.9
20260507084705 41 155 0.0 0.0 0.00 0.06 0.00 98 1012.9
20260507084205 40 167 0.0 0.0 0.00 0.07 0.00 98 1012.9
20260507083704 40 157 0.0 0.0 0.00 0.07 0.00 98 1012.9
20260507083205 39 265 0.0 0.0 0.00 0.08 0.00 98 1012.9
20260507082705 39 160 0.0 0.0 0.00 0.09 0.00 98 1012.9
20260507082204 39 124 0.0 0.0 0.00 0.09 0.00 97 1012.9
20260507081704 39 123 0.0 0.0 0.00 0.10 0.00 97 1012.9
20260507081204 39 119 0.0 0.0 0.00 0.10 0.00 97 1012.9
20260507080704 39 48 0.0 0.0 0.00 0.11 0.00 97 1013.2
20260507075704 39 311 0.0 0.0 0.00 0.12 0.00 97 1012.9
20260507075205 39 110 0.0 0.0 0.00 0.12 0.00 96 1012.9
20260507074705 39 111 0.0 0.0 0.00 0.12 0.00 96 1012.9
20260507073704 39 102 0.0 0.0 0.00 0.13 0.00 96 1012.9
20260507073204 38 113 0.0 0.0 0.00 0.14 0.00 95 1012.9
20260507072704 39 112 0.0 0.0 0.00 0.14 0.00 95 1012.9
20260507072205 39 71 0.0 0.0 0.00 0.14 0.00 95 1013.2
20260507071704 39 70 0.0 0.0 0.00 0.14 0.00 95 1012.9
20260507071204 39 70 0.0 0.0 0.00 0.14 0.00 94 1012.9
20260507070704 39 110 0.0 0.0 0.00 0.15 0.00 94 1013.2
20260507065704 39 98 0.0 0.0 0.00 0.15 0.00 93 1013.2
20260507065204 39 97 0.0 0.0 0.00 0.15 0.00 93 1013.2
20260507064705 40 98 0.0 0.0 0.00 0.15 0.00 93 1013.2
20260507064204 40 98 0.0 0.0 0.00 0.15 0.00 92 1013.2
20260507063704 40 98 0.0 0.0 0.00 0.16 0.00 91 1013.2
20260507063204 40 98 0.0 0.0 0.00 0.16 0.00 91 1013.5
20260507062704 41 98 0.0 0.0 0.00 0.16 0.00 91 1013.5
20260507062204 41 86 0.0 0.0 0.00 0.17 0.00 90 1013.5
20260507061704 41 98 0.0 0.0 0.00 0.18 0.00 90 1013.5
20260507061204 41 110 0.0 0.0 0.00 0.19 0.00 89 1013.5
20260507060204 41 107 0.0 0.0 0.00 0.21 0.00 89 1013.5
20260507055704 42 113 0.0 0.0 0.00 0.21 0.00 89 1013.5
20260507055204 42 102 0.0 0.0 0.00 0.22 0.00 89 1013.5
20260507054204 42 117 0.0 0.0 0.00 0.24 0.00 88 1013.6
20260507053704 43 110 0.0 0.0 0.00 0.24 0.00 88 1013.5
20260507052704 43 118 0.0 0.0 0.00 0.25 0.00 88 1013.5
20260507052204 43 118 0.0 0.0 0.00 0.25 0.00 88 1013.9
20260507051704 44 116 0.0 0.0 0.00 0.25 0.00 87 1013.9
20260507050704 44 126 0.0 0.0 0.00 0.25 0.00 87 1013.9
20260507050204 44 111 0.0 0.0 0.00 0.26 0.00 87 1013.9
20260507045704 44 124 0.0 0.0 0.00 0.26 0.00 87 1013.9
20260507045204 45 116 0.0 0.0 0.00 0.26 0.00 86 1013.9